#timestamp,LO_Frequency,Hit,StdDev 
1523833215.2,286047001.2,P
1523833235.9,286047000.8,N
1523833255.7,286047000.6,N
1523833275.6,286047001.2,N
1523833295.4,286047000.9,N
1523833315.3,286046998.5,N
1523833335.1,286047000.3,N
1523833336.0,286047000.3,N
1523833355.8,286047002.8,N
1523833375.7,286047002.1,N
1523833395.5,286047000.0,N
1523833415.3,286047000.3,N
1523833435.2,286047000.6,N
1523833455.0,286046999.8,N
1523833455.9,286046999.8,N
1523833475.8,286046998.1,N
1523833495.6,286047000.8,N
1523833515.4,286047000.3,N
1523833535.3,286047000.0,N
1523833555.1,286047000.3,N
1523833575.8,286046999.9,N
1523833595.7,286047002.6,N
1523833615.5,286047001.8,N
1523833635.4,286047002.6,N
1523833655.2,286046999.8,N
1523833675.0,286047000.0,N
1523833675.9,286047000.0,N
1523833695.8,286046998.2,N
1523833715.6,286046998.7,N
1523833735.4,286046998.9,N
1523833755.3,286046998.6,N
1523833775.1,286046999.4,N
1523833795.9,286047001.2,N
1523833815.7,286046998.4,N
1523833835.5,286046996.9,N
1523833855.4,286046998.7,N
1523833875.2,286047000.8,N
1523833895.0,286047001.1,N
1523833896.0,286047001.1,N
1523833915.8,286046996.5,N
1523833935.6,286046998.9,N
1523833955.5,286047000.5,N
1523833975.3,286047000.1,N
1523833995.1,286046999.8,N
1523834015.9,286047001.5,N
1523834035.7,286047001.7,N
1523834055.6,286047002.1,N
1523834075.4,286047001.8,N
1523834095.2,286047004.0,N
1523834115.1,286047004.4,N
1523834116.0,286047004.4,N
1523834135.8,286047001.3,N
1523834155.6,286047004.4,N
1523834175.5,286047002.5,N
1523834195.3,286047011.9,Y
1523834215.2,286047002.5,P
1523834235.9,286047000.9,N
1523834255.7,286047000.9,N
1523834275.6,286047000.5,N
1523834295.4,286047001.1,N
1523834315.2,286046998.2,N
1523834335.1,286046998.4,N
1523834336.0,286046998.4,N
1523834355.8,286046998.8,N
1523834375.7,286047001.2,N
1523834395.5,286047000.7,N
1523834415.3,286046999.8,N
1523834435.2,286046999.8,N
1523834455.0,286047001.0,N
1523834455.9,286047001.0,N
1523834475.8,286047000.1,N
1523834495.6,286047000.6,N
1523834515.4,286047002.4,N
1523834535.3,286047003.9,Y
1523834555.1,286047002.1,P
1523834575.8,286047002.2,N
1523834595.7,286047001.9,N
1523834615.5,286047002.2,N
1523834635.4,286047001.5,N
1523834655.2,286047002.5,Y
1523834675.0,286046996.6,P
1523834676.0,286046996.6,N
1523834695.8,286046998.6,N
1523834715.6,286047000.9,N
1523834735.5,286047001.1,N
1523834755.3,286047000.0,N
1523834775.1,286047000.8,N
1523834795.9,286047000.7,N
1523834815.7,286046998.1,N
1523834835.5,286046998.7,N
1523834855.4,286046996.7,N
1523834875.2,286046996.6,N
1523834895.1,286046997.4,N
1523834896.0,286046997.4,N
1523834915.8,286046996.8,N
1523834935.6,286046997.0,N
1523834955.5,286046999.2,N
1523834975.3,286046999.0,N
1523834995.1,286046996.7,N
1523835015.9,286046999.4,N
1523835035.7,286047000.4,N
1523835055.6,286047000.4,N
1523835075.4,286047000.2,N
1523835095.2,286047001.9,N
1523835115.1,286047000.2,N
1523835116.0,286047000.2,N
1523835135.8,286047000.6,N
1523835155.7,286047000.3,N
1523835175.5,286047000.0,N
1523835195.3,286047001.3,N
1523835215.2,286047003.9,N
1523835235.0,286047000.9,N
1523835235.9,286047000.9,N
1523835255.7,286046999.2,N
1523835275.6,286046996.9,N
1523835295.4,286046997.8,N
1523835315.3,286046999.5,N
1523835335.1,286046998.4,N
1523835355.8,286046998.8,N
1523835375.7,286046998.5,N
1523835395.5,286046998.5,N
1523835415.4,286046999.5,N
1523835435.2,286046999.4,N
1523835455.0,286047001.2,N
1523835455.9,286047001.2,N
1523835475.8,286046998.6,N
1523835495.6,286046999.5,N
1523835515.4,286046998.3,N
1523835535.3,286046996.9,N
1523835555.1,286046997.3,N
1523835575.9,286046999.4,N
1523835595.7,286046998.2,N
1523835615.5,286046999.1,N
1523835635.4,286046999.4,N
1523835655.2,286046996.5,N
1523835675.0,286046996.5,N
1523835675.9,286046996.5,N
1523835695.8,286046998.8,N
1523835715.6,286046998.3,N
1523835735.5,286047002.2,N
1523835755.3,286047002.6,N
1523835775.1,286047001.6,N
1523835795.9,286047002.0,N
1523835815.7,286046999.7,N
1523835835.5,286046999.9,N
1523835855.4,286047000.1,N
1523835875.2,286047000.2,N
1523835895.1,286046998.5,N
1523835896.0,286046998.5,N
1523835915.8,286047001.0,N
1523835935.6,286046998.8,N
1523835955.5,286046998.1,N
1523835975.3,286046996.5,N
1523835995.1,286046998.3,N
1523836015.9,286047000.7,N
1523836035.7,286047000.5,N
1523836055.6,286047000.6,N
1523836075.4,286046998.1,N
1523836095.2,286046999.6,N
1523836115.1,286046996.7,N
1523836116.0,286046996.7,N
1523836135.8,286046996.6,N
1523836155.6,286046997.0,N
1523836175.5,286046998.8,N
1523836195.3,286046998.5,N
1523836215.2,286046998.5,N
1523836235.9,286047001.0,N
1523836255.7,286047000.9,N
1523836275.6,286047000.5,N
1523836295.4,286046999.3,N
1523836315.2,286046998.8,N
1523836335.1,286046996.9,N
1523836336.0,286046996.9,N
1523836355.8,286046999.4,N
1523836375.7,286046998.1,N
1523836395.5,286046999.1,N
1523836415.3,286046998.6,N
1523836435.2,286046998.3,N
1523836455.0,286046996.5,N
1523836455.9,286046996.5,N
1523836475.8,286046997.1,N
1523836495.6,286046996.8,N
1523836515.4,286046999.4,N
1523836535.3,286046999.3,N
1523836555.1,286047001.1,N
1523836575.8,286047001.2,N
1523836595.7,286047000.8,N
1523836615.5,286047001.1,N
1523836635.4,286046998.2,N
1523836655.2,286046998.6,N
1523836675.0,286046998.4,N
1523836675.9,286046998.4,N
1523836695.8,286046998.1,N
1523836715.6,286046998.1,N
1523836735.5,286046999.3,N
1523836755.3,286046999.0,N
1523836775.1,286047001.0,N
1523836795.9,286046999.9,N
